Location: Ellerstadt
(49.4644°N, 8.2615°E)
Time: 02:30:40
(UTC+00:00)

ISS - Pass Details

Date: 15 May 2021
Orbit: 417 x 422 km, 51.6° (Epoch: 15 June)

Event Time Altitude Azimuth Distance (km) Brightness Sun altitude
Rises 00:01:20 0° 280° (W) 2,371 0.1 -21.1°
Reaches altitude 10° 00:03:27 10° 284° (WNW) 1,507 -0.9 -21.1°
Maximum altitude 00:06:48 59° 5° (N) 495 -3.2 -21.0°
Drops below altitude 10° 00:10:09 10° 86° (E) 1,508 -0.8 -20.9°
Sets 00:12:17 0° 90° (E) 2,373 0.2 -20.8°
